sat.trackr.live / text

‹ back to catalog

STARLINK-34596

NORAD 64732 · 2025-144J

PAYLOAD ACTIVE UNKNOWN

§ Identity

Operator
Country
US
Launch date
2025-07-02
Launch site
AFETR
Launch vehicle
Mass (kg)
RCS (m²)

Purposes: comms

External: N2YO · Heavens-Above · Gunter

§ Orbital elements

Epoch: 2026-05-25T02:59:30.348384Z

Period
94.11 min
Inclination
53.1582°
Eccentricity
0.0001276
Mean motion
15.30205237 rev/d
Perigee alt
474.3 km
Apogee alt
476.1 km
Semi-major
6,853.3 km
B*
6.1589e-4
RAAN
186.0635°
Arg perigee
86.5556°
Mean anomaly
273.5591°
Rev number
5,141

§ Raw data

STARLINK-345961 64732U 25144J   26145.12465681  .00017929  00000+0  61589-3 0  99982 64732  53.1582 186.0635 0001276  86.5556 273.5591 15.30205237 51419

JSON: /api/v1/satellites/64732 · /tle

For live sub-satellite position, see the globe view (requires WebGL).

§ Visibility from observer

Set your observer location to see the next 7 days of passes ≥ 10°. The values pass through the URL so the page stays shareable.

No JS? Fill the form by hand. The geolocation button needs JavaScript.